THOR 7

Last updated on Sat Jun 14 2025 00:02:46 GMT+0000 (Coordinated Universal Time)

1 40613U 15022A 25164.53683149 .00000007 00000+0 00000+0 0 9996 2 40613 0.0188 81.5769 0002851 0.1547 12.9642 1.00271842 37124
UTC large
Height (km)
Speed (km/s)
/
Latitude / Longitude
Inclination (degrees)
Orbital Period (minutes)
Azimuth
Elevation
Range (km)
Doppler Factor

Next 0 passes for location: London (51.5072 / 0.1276)

Sorry there are no passes over London.